Location: Bilbao
(43.2500°N, 2.9667°W)
Time: 10:18:37
(UTC+02:00)

ISS - Pass Details

Date: 28 June 2022
Orbit: 412 x 420 km, 51.6° (Epoch: 11 August)

Event Time Altitude Azimuth Distance (km) Brightness Sun altitude
Exits shadow 05:39:57 12° 235° (SW) 1,437 -1.7 -8.5°
Maximum altitude 05:43:10 88° 146° (SE) 441 -3.7 -8.1°
Drops below altitude 10° 05:46:40 10° 58° (ENE) 1,557 0.8 -7.6°
Sets 05:48:49 0° 58° (ENE) 2,435 2.3 -7.3°
